• In Russia
  • List of Countries
  • For 7 days
  • Water Temperature
  • Satellite Maps
  • Weather Map
  • Weather Widgets
  • user-avatar
    Login

    Hourly Weather Coleraine

    Today, 17 December, Sunday

    Time Temperature Precipitation Wind Pressure Humidity
    00:00 +3°C° 0 mm 5 mps 762 mmHg 94%
    01:00 +3°C° 0 mm 5 mps 762 mmHg 94%
    02:00 +3°C° 0 mm 5 mps 761 mmHg 95%
    03:00 +4°C° 0 mm 6 mps 761 mmHg 95%
    04:00 +4°C° 0.8 mm 6 mps 760 mmHg 95%
    05:00 +5°C° 0.8 mm 7 mps 759 mmHg 94%
    06:00 +6°C° 0.8 mm 7 mps 759 mmHg 94%
    07:00 +8°C° 1.5 mm 7 mps 759 mmHg 94%
    08:00 +8°C° 1.5 mm 7 mps 758 mmHg 94%
    09:00 +9°C° 1.5 mm 7 mps 758 mmHg 94%
    10:00 +9°C° 0.1 mm 7 mps 759 mmHg 91%
    11:00 +9°C° 0.1 mm 7 mps 759 mmHg 88%
    12:00 +9°C° 0.1 mm 7 mps 760 mmHg 85%
    13:00 +8°C° 0 mm 7 mps 761 mmHg 83%
    14:00 +6°C° 0 mm 7 mps 761 mmHg 81%
    15:00 +6°C° 0 mm 7 mps 762 mmHg 80%
    16:00 +5°C° 0 mm 6 mps 762 mmHg 81%
    17:00 +5°C° 0 mm 6 mps 763 mmHg 82%
    18:00 +5°C° 0 mm 5 mps 763 mmHg 84%
    19:00 +5°C° 0 mm 5 mps 764 mmHg 85%
    20:00 +5°C° 0 mm 4 mps 765 mmHg 87%
    21:00 +4°C° 0 mm 4 mps 765 mmHg 89%
    22:00 +4°C° 0 mm 4 mps 766 mmHg 89%
    23:00 +4°C° 0 mm 3 mps 766 mmHg 90%

    Tomorrow, 18 December, Monday

    Time Temperature Precipitation Wind Pressure Humidity
    00:00 +4°C° 0 mm 3 mps 767 mmHg 91%
    01:00 +4°C° 0 mm 3 mps 767 mmHg 91%
    02:00 +4°C° 0 mm 3 mps 767 mmHg 92%
    03:00 +3°C° 0 mm 3 mps 767 mmHg 92%
    04:00 +3°C° 0 mm 3 mps 767 mmHg 92%
    05:00 +3°C° 0 mm 3 mps 768 mmHg 92%
    06:00 +3°C° 0 mm 3 mps 768 mmHg 92%
    07:00 +3°C° 0 mm 3 mps 768 mmHg 92%
    08:00 +3°C° 0 mm 3 mps 768 mmHg 92%
    09:00 +3°C° 0 mm 4 mps 768 mmHg 92%
    10:00 +4°C° 0 mm 4 mps 769 mmHg 89%
    11:00 +4°C° 0 mm 4 mps 769 mmHg 87%
    12:00 +5°C° 0 mm 4 mps 769 mmHg 84%
    13:00 +5°C° 0 mm 4 mps 769 mmHg 84%
    14:00 +6°C° 0 mm 4 mps 769 mmHg 84%
    15:00 +6°C° 0 mm 4 mps 768 mmHg 84%
    16:00 +6°C° 0 mm 4 mps 768 mmHg 86%
    17:00 +6°C° 0 mm 4 mps 768 mmHg 88%
    18:00 +6°C° 0 mm 5 mps 769 mmHg 91%
    19:00 +6°C° 0 mm 5 mps 769 mmHg 92%
    20:00 +7°C° 0 mm 5 mps 769 mmHg 94%
    21:00 +7°C° 0 mm 5 mps 769 mmHg 96%
    22:00 +7°C° 0 mm 5 mps 769 mmHg 96%
    23:00 +8°C° 0 mm 5 mps 769 mmHg 96%

    Day after tomorrow, 19 December, Tuesday

    Time Temperature Precipitation Wind Pressure Humidity
    00:00 +8°C° 0 mm 5 mps 769 mmHg 96%
    01:00 +9°C° 0 mm 5 mps 768 mmHg 96%
    02:00 +9°C° 0 mm 5 mps 768 mmHg 96%
    03:00 +9°C° 0 mm 5 mps 768 mmHg 96%
    04:00 +9°C° 0 mm 5 mps 768 mmHg 95%
    05:00 +10°C° 0 mm 5 mps 768 mmHg 95%
    06:00 +10°C° 0 mm 5 mps 768 mmHg 95%
    07:00 +10°C° 0 mm 6 mps 768 mmHg 95%
    08:00 +10°C° 0 mm 6 mps 768 mmHg 94%
    09:00 +10°C° 0 mm 6 mps 768 mmHg 94%
    10:00 +10°C° 0 mm 6 mps 768 mmHg 93%
    11:00 +11°C° 0 mm 6 mps 768 mmHg 91%
    12:00 +11°C° 0 mm 7 mps 768 mmHg 90%
    13:00 +11°C° 0 mm 7 mps 768 mmHg 90%
    14:00 +11°C° 0 mm 6 mps 767 mmHg 90%
    15:00 +11°C° 0 mm 6 mps 767 mmHg 90%
    16:00 +11°C° 0 mm 7 mps 767 mmHg 90%
    17:00 +11°C° 0 mm 7 mps 767 mmHg 90%
    18:00 +12°C° 0 mm 7 mps 767 mmHg 90%
    19:00 +11°C° 0.1 mm 7 mps 767 mmHg 90%
    20:00 +11°C° 0.1 mm 7 mps 767 mmHg 90%
    21:00 +11°C° 0.1 mm 7 mps 767 mmHg 89%
    22:00 +11°C° 0.2 mm 7 mps 767 mmHg 90%
    23:00 +11°C° 0.2 mm 6 mps 767 mmHg 91%

    20 December, Wednesday

    Time Temperature Precipitation Wind Pressure Humidity
    00:00 +11°C° 0.2 mm 6 mps 767 mmHg 92%
    01:00 +12°C° 0.2 mm 5 mps 768 mmHg 93%
    02:00 +10°C° 0.2 mm 5 mps 768 mmHg 94%
    03:00 +11°C° 0.2 mm 4 mps 768 mmHg 95%
    04:00 +10°C° 0 mm 3 mps 769 mmHg 95%
    05:00 +9°C° 0 mm 3 mps 769 mmHg 95%
    06:00 +8°C° 0 mm 2 mps 769 mmHg 96%
    07:00 +8°C° 0 mm 2 mps 770 mmHg 95%
    08:00 +8°C° 0 mm 2 mps 770 mmHg 95%
    09:00 +9°C° 0 mm 1 mps 771 mmHg 94%
    10:00 +9°C° 0 mm 1 mps 771 mmHg 92%
    11:00 +10°C° 0 mm 1 mps 771 mmHg 90%
    12:00 +10°C° 0 mm 1 mps 771 mmHg 88%
    13:00 +10°C° 0 mm 1 mps 771 mmHg 88%
    14:00 +10°C° 0 mm 1 mps 771 mmHg 88%
    15:00 +10°C° 0 mm 1 mps 771 mmHg 88%
    16:00 +9°C° 0 mm 1 mps 771 mmHg 87%
    17:00 +9°C° 0 mm 1 mps 771 mmHg 87%
    18:00 +9°C° 0 mm 1 mps 771 mmHg 87%
    19:00 +9°C° 0 mm 1 mps 771 mmHg 87%
    20:00 +9°C° 0 mm 1 mps 771 mmHg 87%
    21:00 +9°C° 0 mm 1 mps 771 mmHg 86%
    22:00 +9°C° 0.1 mm 1 mps 771 mmHg 87%
    23:00 +9°C° 0.1 mm 1 mps 771 mmHg 87%

    21 December, Thursday

    Time Temperature Precipitation Wind Pressure Humidity
    00:00 +9°C° 0.1 mm 1 mps 771 mmHg 88%
    01:00 +9°C° 0.3 mm 1 mps 771 mmHg 89%
    02:00 +8°C° 0.3 mm 1 mps 770 mmHg 90%
    03:00 +8°C° 0.3 mm 1 mps 770 mmHg 91%
    04:00 +8°C° 0.6 mm 1 mps 770 mmHg 91%
    05:00 +7°C° 0.6 mm 2 mps 770 mmHg 92%
    06:00 +7°C° 0.6 mm 2 mps 770 mmHg 93%
    07:00 +7°C° 0.4 mm 2 mps 771 mmHg 94%
    08:00 +7°C° 0.4 mm 2 mps 771 mmHg 95%
    09:00 +7°C° 0.4 mm 2 mps 771 mmHg 96%
    10:00 +7°C° 0.2 mm 3 mps 772 mmHg 94%
    11:00 +8°C° 0.2 mm 3 mps 772 mmHg 92%
    12:00 +7°C° 0.2 mm 4 mps 773 mmHg 90%
    13:00 +7°C° 0 mm 4 mps 773 mmHg 88%
    14:00 +6°C° 0 mm 5 mps 773 mmHg 85%
    15:00 +6°C° 0 mm 5 mps 774 mmHg 83%
    16:00 +6°C° 0 mm 5 mps 774 mmHg 84%
    17:00 +5°C° 0 mm 5 mps 775 mmHg 84%
    18:00 +4°C° 0 mm 4 mps 776 mmHg 84%
    19:00 +4°C° 0 mm 4 mps 776 mmHg 85%
    20:00 +4°C° 0 mm 4 mps 777 mmHg 85%
    21:00 +4°C° 0 mm 4 mps 777 mmHg 86%
    22:00 +3°C° 0 mm 3 mps 778 mmHg 87%
    23:00 +3°C° 0 mm 3 mps 778 mmHg 87%

    22 December, Friday

    Time Temperature Precipitation Wind Pressure Humidity
    00:00 +3°C° 0 mm 3 mps 778 mmHg 88%
    01:00 +3°C° 0 mm 4 mps 778 mmHg 89%
    02:00 +3°C° 0 mm 4 mps 778 mmHg 89%
    03:00 +3°C° 0 mm 4 mps 779 mmHg 90%
    04:00 +3°C° 0 mm 4 mps 779 mmHg 90%
    05:00 +1°C° 0 mm 5 mps 779 mmHg 90%
    06:00 +1°C° 0 mm 5 mps 779 mmHg 90%
    07:00 +1°C° 0 mm 5 mps 779 mmHg 90%
    08:00 +1°C° 0 mm 5 mps 779 mmHg 91%
    09:00 +1°C° 0 mm 5 mps 779 mmHg 91%
    10:00 +2°C° 0 mm 5 mps 779 mmHg 88%
    11:00 +3°C° 0 mm 5 mps 779 mmHg 85%
    12:00 +3°C° 0 mm 5 mps 779 mmHg 82%
    13:00 +3°C° 0 mm 5 mps 778 mmHg 82%
    14:00 +3°C° 0 mm 5 mps 778 mmHg 83%
    15:00 +3°C° 0 mm 5 mps 778 mmHg 83%
    16:00 +3°C° 0 mm 5 mps 778 mmHg 85%
    17:00 +2°C° 0 mm 5 mps 778 mmHg 88%
    18:00 +1°C° 0 mm 5 mps 777 mmHg 90%
    19:00 +2°C° 0 mm 6 mps 777 mmHg 91%
    20:00 +3°C° 0 mm 6 mps 777 mmHg 93%
    21:00 +3°C° 0 mm 6 mps 777 mmHg 94%
    22:00 +4°C° 0.1 mm 6 mps 776 mmHg 93%
    23:00 +5°C° 0.1 mm 6 mps 776 mmHg 93%
    Show more

    XHprof extension not loaded